TimeCST,TemperatureF,Dew PointF,Humidity,Sea Level PressureIn,VisibilityMPH,Wind Direction,Wind SpeedMPH,Gust SpeedMPH,PrecipitationIn,Events,Conditions,WindDirDegrees,DateUTC
12:15 AM,35.6,32.0,87,30.22,10.0,Calm,Calm,-,N/A,,Clear,0,2013-01-20 06:15:00
12:35 AM,35.6,32.0,87,30.22,10.0,Calm,Calm,-,N/A,,Clear,0,2013-01-20 06:35:00
1:15 AM,33.8,32.0,93,30.22,10.0,Calm,Calm,-,N/A,,Clear,0,2013-01-20 07:15:00
1:35 AM,33.8,32.0,93,30.22,10.0,Calm,Calm,-,N/A,,Clear,0,2013-01-20 07:35:00
1:55 AM,33.8,32.0,93,30.22,10.0,Calm,Calm,-,N/A,,Clear,0,2013-01-20 07:55:00
2:15 AM,32.0,32.0,100,30.22,10.0,Calm,Calm,-,N/A,,Clear,0,2013-01-20 08:15:00
2:35 AM,32.0,32.0,100,30.23,10.0,Calm,Calm,-,N/A,,Clear,0,2013-01-20 08:35:00
2:55 AM,32.0,32.0,100,30.23,10.0,ESE,3.5,-,N/A,,Clear,120,2013-01-20 08:55:00
3:15 AM,32.0,32.0,100,30.23,10.0,Calm,Calm,-,N/A,,Clear,0,2013-01-20 09:15:00
3:35 AM,32.0,32.0,100,30.23,10.0,NE,3.5,-,N/A,,Clear,50,2013-01-20 09:35:00
3:55 AM,32.0,32.0,100,30.23,10.0,Calm,Calm,-,N/A,,Clear,0,2013-01-20 09:55:00
4:15 AM,32.0,32.0,100,30.22,10.0,Calm,Calm,-,N/A,,Clear,0,2013-01-20 10:15:00
4:35 AM,32.0,30.2,93,30.22,10.0,Calm,Calm,-,N/A,,Clear,0,2013-01-20 10:35:00
4:55 AM,32.0,32.0,100,30.22,10.0,ENE,3.5,-,N/A,,Clear,60,2013-01-20 10:55:00
5:15 AM,32.0,32.0,100,30.22,10.0,Calm,Calm,-,N/A,,Clear,0,2013-01-20 11:15:00
5:35 AM,32.0,32.0,100,30.22,10.0,Calm,Calm,-,N/A,,Clear,0,2013-01-20 11:35:00
6:15 AM,30.2,30.2,100,30.23,7.0,Calm,Calm,-,N/A,,Clear,0,2013-01-20 12:15:00
6:35 AM,30.2,30.2,100,30.23,7.0,Calm,Calm,-,N/A,,Clear,0,2013-01-20 12:35:00
6:55 AM,30.2,30.2,100,30.24,10.0,Calm,Calm,-,N/A,,Clear,0,2013-01-20 12:55:00
7:15 AM,30.2,30.2,100,30.24,7.0,ENE,3.5,-,N/A,,Clear,60,2013-01-20 13:15:00
7:35 AM,30.2,30.2,100,30.25,7.0,ENE,4.6,-,N/A,,Clear,70,2013-01-20 13:35:00
7:55 AM,32.0,32.0,100,30.25,7.0,ENE,3.5,-,N/A,,Clear,70,2013-01-20 13:55:00
8:15 AM,35.6,35.6,100,30.25,10.0,East,5.8,-,N/A,,Clear,80,2013-01-20 14:15:00
8:35 AM,37.4,37.4,100,30.25,10.0,ENE,4.6,-,N/A,,Clear,60,2013-01-20 14:35:00
8:55 AM,41.0,37.4,87,30.25,10.0,NE,3.5,-,N/A,,Clear,50,2013-01-20 14:55:00
9:15 AM,42.8,37.4,81,30.25,10.0,East,4.6,-,N/A,,Clear,80,2013-01-20 15:15:00
9:35 AM,46.4,37.4,71,30.25,10.0,East,8.1,-,N/A,,Clear,90,2013-01-20 15:35:00
9:55 AM,48.2,37.4,66,30.26,10.0,East,5.8,-,N/A,,Clear,90,2013-01-20 15:55:00
10:15 AM,51.8,35.6,54,30.26,10.0,East,13.8,17.3,N/A,,Clear,100,2013-01-20 16:15:00
10:35 AM,53.6,33.8,47,30.25,10.0,East,11.5,-,N/A,,Clear,100,2013-01-20 16:35:00
10:55 AM,53.6,33.8,47,30.25,10.0,East,16.1,20.7,N/A,,Clear,80,2013-01-20 16:55:00
11:15 AM,55.4,32.0,41,30.25,10.0,East,11.5,18.4,N/A,,Clear,100,2013-01-20 17:15:00
11:35 AM,57.2,33.8,41,30.24,10.0,ESE,13.8,19.6,N/A,,Clear,120,2013-01-20 17:35:00
11:55 AM,59.0,35.6,42,30.22,10.0,ESE,9.2,17.3,N/A,,Clear,110,2013-01-20 17:55:00
12:15 PM,59.0,35.6,42,30.21,10.0,ESE,9.2,-,N/A,,Clear,120,2013-01-20 18:15:00
12:35 PM,60.8,35.6,39,30.19,10.0,ESE,8.1,-,N/A,,Clear,110,2013-01-20 18:35:00
12:55 PM,60.8,35.6,39,30.18,10.0,East,8.1,-,N/A,,Clear,100,2013-01-20 18:55:00
1:15 PM,60.8,35.6,39,30.17,10.0,ESE,6.9,-,N/A,,Clear,120,2013-01-20 19:15:00
1:35 PM,60.8,33.8,36,30.16,10.0,SE,6.9,-,N/A,,Clear,130,2013-01-20 19:35:00
1:55 PM,62.6,37.4,39,30.16,10.0,SE,4.6,-,N/A,,Clear,140,2013-01-20 19:55:00
2:15 PM,62.6,37.4,39,30.16,10.0,Calm,Calm,-,N/A,,Clear,0,2013-01-20 20:15:00
2:35 PM,62.6,37.4,39,30.15,10.0,ESE,3.5,-,N/A,,Clear,120,2013-01-20 20:35:00
2:55 PM,62.6,37.4,39,30.14,10.0,East,4.6,-,N/A,,Clear,100,2013-01-20 20:55:00
3:15 PM,62.6,37.4,39,30.14,10.0,SE,4.6,-,N/A,,Clear,130,2013-01-20 21:15:00
3:35 PM,62.6,37.4,39,30.13,10.0,Calm,Calm,-,N/A,,Clear,0,2013-01-20 21:35:00
3:55 PM,62.6,37.4,39,30.12,10.0,ESE,5.8,-,N/A,,Clear,120,2013-01-20 21:55:00
4:15 PM,62.6,37.4,39,30.12,10.0,SE,3.5,-,N/A,,Clear,140,2013-01-20 22:15:00
4:35 PM,62.6,37.4,39,30.12,10.0,East,4.6,-,N/A,,Clear,100,2013-01-20 22:35:00
4:55 PM,60.8,37.4,42,30.12,10.0,East,6.9,-,N/A,,Clear,80,2013-01-20 22:55:00
5:15 PM,60.8,35.6,39,30.12,10.0,ENE,5.8,-,N/A,,Clear,70,2013-01-20 23:15:00
5:35 PM,59.0,35.6,42,30.12,10.0,NE,4.6,-,N/A,,Clear,50,2013-01-20 23:35:00
5:55 PM,57.2,35.6,44,30.13,10.0,NE,4.6,-,N/A,,Clear,40,2013-01-20 23:55:00
6:15 PM,55.4,35.6,47,30.14,10.0,ENE,4.6,-,N/A,,Clear,60,2013-01-21 00:15:00
6:35 PM,53.6,35.6,51,30.14,10.0,NE,4.6,-,N/A,,Clear,50,2013-01-21 00:35:00
6:55 PM,53.6,35.6,51,30.14,10.0,East,4.6,-,N/A,,Clear,80,2013-01-21 00:55:00
7:15 PM,51.8,35.6,54,30.15,10.0,NE,3.5,-,N/A,,Clear,50,2013-01-21 01:15:00
7:35 PM,50.0,35.6,58,30.15,10.0,Calm,Calm,-,N/A,,Clear,0,2013-01-21 01:35:00
7:55 PM,46.4,35.6,66,30.15,10.0,ESE,4.6,-,N/A,,Scattered Clouds,110,2013-01-21 01:55:00
8:15 PM,46.4,35.6,66,30.15,10.0,East,3.5,-,N/A,,Mostly Cloudy,80,2013-01-21 02:15:00
8:35 PM,46.4,35.6,66,30.15,10.0,East,3.5,-,N/A,,Overcast,90,2013-01-21 02:35:00
8:55 PM,46.4,35.6,66,30.15,10.0,NE,3.5,-,N/A,,Mostly Cloudy,50,2013-01-21 02:55:00
9:15 PM,46.4,35.6,66,30.16,10.0,ENE,3.5,-,N/A,,Mostly Cloudy,60,2013-01-21 03:15:00
9:55 PM,48.2,35.6,62,30.18,10.0,North,3.5,-,N/A,,Scattered Clouds,350,2013-01-21 03:55:00
10:15 PM,48.2,33.8,58,30.18,10.0,North,5.8,-,N/A,,Clear,350,2013-01-21 04:15:00
10:35 PM,46.4,35.6,66,30.19,10.0,North,3.5,-,N/A,,Clear,10,2013-01-21 04:35:00
10:55 PM,46.4,33.8,62,30.20,10.0,Calm,Calm,-,N/A,,Clear,0,2013-01-21 04:55:00
11:15 PM,46.4,32.0,57,30.20,10.0,Calm,Calm,-,N/A,,Scattered Clouds,0,2013-01-21 05:15:00
11:35 PM,44.6,32.0,61,30.21,10.0,Calm,Calm,-,N/A,,Clear,0,2013-01-21 05:35:00
11:55 PM,44.6,30.2,57,30.21,10.0,Calm,Calm,-,N/A,,Clear,0,2013-01-21 05:55:00